[[{"header":{"parameterUnit":"m.s-1","parameterCategory":1,"la1":30.2991,"la2":30.254,"lo1":-89.0895,"lo2":-89.0444,"dy":0.0017,"dx":0.0017,"nx":28,"ny":28,"refTime":"2024-06-05T09:00:00:Z","depth":0,"parameterNumber":2,"parameterNumberName":"U-component_of_WINDS"},"data":[0,0,0,0,0,0,0,0,0,0,0,0,0,0,0,0,0,0,0,0,0,0,0,0,0,0,0,0,0,0,0,0,0,0,0,0,0,0,0,0,0,0,0,0,0,0,0,0,0,0,0,0,0,0,0,0,0,0,1.9907,1.9906,0,1.9782,1.9781,1.9779,1.9678,1.9677,1.9676,1.9675,1.9543,1.9541,1.9538,0,0,0,0,0,0,0,0,0,0,0,0,0,2.0053,2.0051,1.9907,1.9906,1.9904,1.9782,1.9781,1.9779,1.9678,1.9677,1.9675,1.9674,1.9544,1.9541,1.9538,0,0,0,0,0,0,0,0,0,0,0,0,0,1.9965,2.005,1.9908,1.9839,1.9832,1.9783,1.9781,1.9778,1.9678,1.9677,1.9675,1.9674,1.9545,1.9542,1.9538,1.9546,0,0,1.9526,1.9525,0,0,0,0,0,0,0,0,1.997,1.996,1.9851,1.9844,1.9835,1.9744,1.9784,1.97,1.9679,1.9736,1.9675,1.9673,1.9611,1.9602,1.9582,1.9539,1.9534,1.9526,1.9524,1.9522,1.9521,0,0,0,0,0,0,0,1.9976,1.9964,1.9858,1.9849,1.984,1.9813,1.9799,1.9767,1.9684,1.9731,1.9724,1.971,1.9607,1.9586,1.9578,1.9532,1.9526,1.9523,1.952,1.9519,1.9484,1.9485,0,0,0,0,0,0,1.9994,1.997,1.9862,1.9854,1.99,1.9811,1.9796,1.9775,1.9684,1.9669,1.9712,1.9706,1.9593,1.9582,1.9573,1.9572,1.9522,1.9518,1.9516,1.9483,1.9484,1.9486,0,0,0,0,0,0,1.9997,1.9985,1.9867,1.991,1.9893,1.9811,1.9788,1.9773,1.9752,1.9669,1.9654,1.9706,1.9591,1.9578,1.9552,1.9566,1.9517,1.9513,1.9481,1.9483,1.9485,1.9574,0,0,0,0,0,0,2.0002,1.9987,1.999,1.9911,1.9891,1.985,1.9789,1.9772,1.9746,1.9738,1.966,1.9645,1.9589,1.9558,1.9548,1.956,1.951,1.9479,1.9482,1.9484,1.9569,1.9579,1.9587,0,0,0,0,0,2.0007,2.0021,1.9991,1.9979,1.9894,1.9851,1.984,1.9776,1.9748,1.9749,1.9696,1.9648,1.9567,1.9557,1.9545,1.9556,1.9478,1.9481,1.9484,1.9565,1.9577,1.9587,0,0,0,0,0,0,2.0104,2.0009,1.9975,1.9964,1.9916,1.9834,1.9835,1.9791,1.9749,1.9743,1.9664,1.9647,1.9628,1.9589,1.958,1.9556,1.9516,1.9517,1.9582,1.9592,1.9601,1.9609,1.9507,0,0,0,0,0,2.0124,2.0099,2.0017,2.0014,1.9992,1.9918,1.9897,1.9851,1.9799,1.9778,1.9722,1.9672,1.9634,1.9611,1.9573,1.9564,1.9543,1.9565,1.9574,1.9581,1.9582,1.957,1.9578,1.9496,1.9496,1.9496,0,0,2.0165,2.011,2.0099,2.0032,1.999,1.9963,1.9902,1.9877,1.9855,1.9773,1.9745,1.9702,1.964,1.9622,1.9611,1.9588,1.96,1.9585,1.9592,1.9588,1.9574,1.9582,1.9589,1.9498,1.9498,1.9497,0,0,2.0225,2.0183,2.0174,2.0133,2.007,2.002,2.0018,1.9942,1.991,1.988,1.9817,1.979,1.9728,1.9685,1.9655,1.9696,1.9649,1.9686,1.9731,1.972,1.9727,1.9732,1.9743,1.9748,1.9688,1.9688,1.9688,0,2.0283,2.0242,2.0175,2.0153,2.0124,2.0049,2.0038,2.0001,1.9928,1.9909,1.9885,1.9804,1.9757,1.9725,1.9735,1.9715,1.9707,1.9694,1.9731,1.9736,1.974,1.9749,1.9754,1.9692,1.9692,1.9691,1.9691,0,2.0315,2.0287,2.0287,2.0219,2.019,2.0174,2.0102,2.008,2.0037,1.9989,1.9957,1.9898,1.9844,1.9834,1.9791,1.9795,1.9782,1.9747,1.9705,1.9753,1.9761,1.9764,1.9699,1.9697,1.9696,1.9695,0,0,2.0433,2.0326,2.0327,2.0293,2.0217,2.0193,2.0172,2.012,2.0101,2.0053,2.0031,1.9979,1.9945,1.9911,1.9863,1.9854,1.9885,1.9818,1.9815,1.983,1.988,1.9906,1.9912,1.9854,1.9854,1.9855,1.9884,0,2.0478,2.0437,2.0375,2.0354,2.0325,2.0252,2.0233,2.0183,2.0136,2.0103,2.0051,2.0015,1.9974,1.9952,1.994,1.9884,1.9894,1.9881,1.9829,1.9828,1.9845,1.9916,1.9944,1.9975,1.9887,1.9888,1.9888,0,2.0526,2.0482,2.0458,2.0381,2.0366,2.0351,2.0296,2.0266,2.0206,2.0173,2.0134,2.0081,2.0052,2.0016,1.9972,1.9965,1.994,1.9909,1.9908,1.9899,1.986,1.9906,1.9984,1.9987,1.9893,1.9892,1.9892,0,2.061,2.0545,2.0521,2.0495,2.0405,2.0395,2.0357,2.0296,2.0267,2.0219,2.0199,2.0148,2.012,2.008,2.0013,1.9994,1.9975,1.9935,1.9944,1.9946,1.9942,1.9943,2.0014,1.9931,1.9931,1.9931,1.9931,0,2.0666,2.0654,2.0557,2.0542,2.0524,2.0451,2.0435,2.039,2.0336,2.0309,2.0243,2.0218,2.0134,2.0098,2.0046,2.0015,2.0004,1.9973,1.9959,1.9978,1.9981,1.9959,1.9954,1.9932,1.9932,1.9931,1.9931,0,2.0757,2.0692,2.066,2.0578,2.0556,2.0547,2.0475,2.0456,2.0405,2.0371,2.0359,2.0279,2.0234,2.0164,2.0098,2.0062,2.0039,2.0018,2.006,2.0051,2.0063,2.0062,2.012,2.0122,2.0041,2.0042,2.0043,0,2.0795,2.0784,2.07,2.0677,2.0641,2.0607,2.0577,2.0504,2.0475,2.0404,2.0393,2.0343,2.0299,2.0229,2.0163,2.0111,2.0086,2.011,2.0078,2.0096,2.0082,2.0083,2.0079,2.0117,2.0118,2.0119,2.012,0,2.087,2.0838,2.0798,2.0747,2.0714,2.0669,2.0622,2.0607,2.0523,2.0493,2.0446,2.0412,2.0344,2.0293,2.0232,2.0189,2.0139,2.0131,2.013,2.0148,2.0171,2.0155,2.0077,2.013,2.0129,2.0128,2.0128,2.0127,2.0933,2.0918,2.0856,2.0813,2.0769,2.0726,2.0703,2.0649,2.0609,2.0549,2.0508,2.0462,2.0399,2.0311,2.0271,2.0233,2.0211,2.0211,2.021,2.021,2.0216,2.018,2.0222,2.0221,2.0221,2.022,2.022,0,2.1001,2.0957,2.0919,2.0854,2.0819,2.0777,2.0722,2.0695,2.0656,2.0602,2.0559,2.0503,2.0453,2.0384,2.0327,2.031,2.0285,2.0297,2.0296,2.0286,2.0239,2.0245,2.0318,2.0318,2.0318,2.0318,2.0318,2.0318,2.1032,2.1003,2.0964,2.0911,2.0866,2.0822,2.0793,2.0751,2.0707,2.0649,2.0607,2.0562,2.05,2.0439,2.039,2.037,2.0351,2.0369,2.0343,2.0299,2.029,2.0282,2.0286,2.0367,2.0367,2.0392,2.0392,2.0393]},{"header":{"parameterUnit":"m.s-1","parameterCategory":1,"la1":30.2991,"la2":30.254,"lo1":-89.0895,"lo2":-89.0444,"dy":0.0017,"dx":0.0017,"nx":28,"ny":28,"refTime":"2024-06-05T09:00:00:Z","depth":0,"parameterNumber":3,"parameterNumberName":"V-component_of_WINDS"},"data":[0,0,0,0,0,0,0,0,0,0,0,0,0,0,0,0,0,0,0,0,0,0,0,0,0,0,0,0,0,0,0,0,0,0,0,0,0,0,0,0,0,0,0,0,0,0,0,0,0,0,0,0,0,0,0,0,0,0,7.0545,7.0545,0,7.0585,7.0585,7.0586,7.0508,7.0506,7.0503,7.0501,7.0537,7.054,7.0543,0,0,0,0,0,0,0,0,0,0,0,0,0,7.0395,7.0398,7.0545,7.0545,7.0546,7.0585,7.0585,7.0586,7.0509,7.0506,7.0503,7.05,7.0536,7.054,7.0544,0,0,0,0,0,0,0,0,0,0,0,0,0,7.045,7.0399,7.0545,7.0512,7.051,7.0585,7.0585,7.0586,7.0509,7.0506,7.0502,7.0498,7.0535,7.0539,7.0544,7.0652,0,0,7.056,7.0562,0,0,0,0,0,0,0,0,7.0447,7.0455,7.0516,7.0514,7.0512,7.0538,7.0546,7.0608,7.051,7.0509,7.0501,7.0496,7.054,7.0544,7.056,7.0653,7.0655,7.056,7.0563,7.0565,7.0567,0,0,0,0,0,0,0,7.0443,7.0453,7.056,7.0517,7.0515,7.0493,7.0497,7.0557,7.0545,7.0509,7.0504,7.051,7.0538,7.0555,7.056,7.0655,7.056,7.0564,7.0567,7.0569,7.0836,7.084,0,0,0,0,0,0,7.0444,7.0451,7.0559,7.0562,7.0469,7.0499,7.0503,7.0533,7.0545,7.0543,7.0513,7.0506,7.0549,7.0555,7.0561,7.0686,7.0565,7.057,7.0573,7.0832,7.0837,7.0841,0,0,0,0,0,0,7.0441,7.0455,7.0557,7.0505,7.0516,7.0506,7.054,7.0536,7.0553,7.0547,7.0544,7.0533,7.0546,7.0554,7.0629,7.0686,7.0572,7.0577,7.0827,7.0833,7.0839,7.0937,0,0,0,0,0,0,7.0437,7.0454,7.0496,7.0506,7.0519,7.0627,7.0544,7.054,7.0563,7.0554,7.0566,7.0564,7.0544,7.0622,7.0634,7.0691,7.0581,7.0822,7.083,7.0837,7.0929,7.0946,7.0961,0,0,0,0,0,7.0432,7.0522,7.0499,7.0512,7.0572,7.0631,7.0638,7.0614,7.0568,7.0609,7.0605,7.0564,7.0678,7.0631,7.0644,7.0702,7.0818,7.0827,7.0836,7.0922,7.0943,7.096,0,0,0,0,0,0,7.0517,7.0523,7.0497,7.0593,7.0612,7.0618,7.0669,7.0637,7.0669,7.0659,7.0626,7.0629,7.0711,7.0714,7.0661,7.0806,7.074,7.0752,7.08,7.082,7.0836,7.0833,7.0585,0,0,0,0,0,7.0548,7.0597,7.0598,7.0682,7.0693,7.068,7.0704,7.0684,7.0702,7.0709,7.071,7.0728,7.0767,7.0794,7.083,7.0929,7.0929,7.0976,7.0992,7.1005,7.1015,7.1066,7.1086,7.0871,7.0871,7.0871,0,0,7.061,7.0619,7.0652,7.0699,7.0712,7.0761,7.0687,7.0742,7.0778,7.0717,7.0788,7.079,7.0807,7.0894,7.0932,7.0899,7.1075,7.1016,7.1027,7.103,7.1077,7.1097,7.1115,7.0877,7.0876,7.0875,0,0,7.0749,7.0761,7.0832,7.0846,7.0866,7.0857,7.0874,7.0884,7.0883,7.0954,7.0909,7.0949,7.1019,7.1032,7.1048,7.1191,7.1153,7.1203,7.1286,7.1335,7.1352,7.1367,7.1416,7.1434,7.1214,7.1214,7.1214,0,7.0823,7.0898,7.0872,7.0931,7.0952,7.09,7.097,7.0984,7.1015,7.103,7.0993,7.1078,7.1086,7.1174,7.1209,7.1224,7.1241,7.1201,7.1352,7.1367,7.138,7.1427,7.1445,7.122,7.1219,7.1219,7.1218,0,7.0987,7.1039,7.1093,7.1125,7.1153,7.1217,7.1199,7.1229,7.1207,7.12,7.1272,7.128,7.1316,7.1335,7.1313,7.142,7.1399,7.1358,7.1291,7.1407,7.145,7.1468,7.1229,7.1226,7.1225,7.1223,0,0,7.1181,7.1197,7.1217,7.123,7.1248,7.1287,7.1347,7.1384,7.141,7.1432,7.1481,7.154,7.1502,7.152,7.1499,7.1543,7.1653,7.1496,7.1495,7.1523,7.1769,7.1799,7.1821,7.1629,7.1632,7.1635,7.1767,0,7.1317,7.1423,7.1401,7.1504,7.1551,7.1502,7.1554,7.1569,7.1565,7.1602,7.1595,7.1638,7.1585,7.1595,7.1636,7.1631,7.1702,7.1621,7.1671,7.1674,7.1668,7.1843,7.1876,7.2,7.1784,7.1787,7.1789,0,7.149,7.152,7.1628,7.1637,7.1656,7.1704,7.1734,7.1771,7.1787,7.178,7.18,7.177,7.1828,7.1762,7.1839,7.1785,7.1804,7.1805,7.1809,7.1812,7.1738,7.1849,7.204,7.2058,7.1815,7.1813,7.1811,0,7.1618,7.1686,7.1758,7.1771,7.1784,7.1818,7.1825,7.1837,7.186,7.1886,7.19,7.1933,7.195,7.1975,7.1954,7.1908,7.2035,7.1967,7.2029,7.203,7.2057,7.2055,7.2252,7.2072,7.2072,7.2071,7.2071,0,7.1772,7.184,7.1816,7.1861,7.1934,7.1908,7.198,7.1981,7.1992,7.2034,7.1993,7.2034,7.2004,7.2041,7.2025,7.2091,7.2099,7.2094,7.2089,7.2097,7.2098,7.2108,7.2098,7.2076,7.2075,7.2074,7.2073,0,7.1928,7.1915,7.1991,7.1997,7.1999,7.2053,7.2057,7.2097,7.209,7.2144,7.2155,7.2142,7.2183,7.2165,7.2208,7.2197,7.2282,7.2265,7.2277,7.2272,7.2335,7.2329,7.2544,7.257,7.2375,7.2377,7.2378,0,7.2026,7.2077,7.2088,7.2114,7.2124,7.2167,7.219,7.2165,7.219,7.2211,7.2249,7.2287,7.2316,7.2384,7.2378,7.241,7.2394,7.2467,7.2398,7.2405,7.2393,7.239,7.2394,7.248,7.2483,7.2484,7.2486,0,7.2201,7.2192,7.2228,7.2262,7.2291,7.2316,7.2337,7.236,7.2336,7.2366,7.2409,7.2431,7.2476,7.2513,7.2542,7.2546,7.2512,7.2508,7.2524,7.2532,7.2536,7.2533,7.2313,7.2503,7.2501,7.25,7.2499,7.2498,7.233,7.2372,7.2387,7.2428,7.2441,7.2461,7.2499,7.2496,7.2532,7.2567,7.2549,7.2598,7.2611,7.2646,7.2655,7.2691,7.2662,7.2686,7.2691,7.2697,7.2705,7.2532,7.2697,7.2696,7.2696,7.2695,7.2695,0,7.2502,7.2509,7.2547,7.2578,7.2609,7.2576,7.2597,7.2625,7.2669,7.2684,7.2714,7.2762,7.2798,7.2794,7.2827,7.2857,7.2842,7.2866,7.2863,7.2864,7.273,7.2712,7.2878,7.2878,7.2878,7.2878,7.2878,7.2878,7.2595,7.2664,7.2657,7.2731,7.2737,7.2786,7.2801,7.2818,7.283,7.2886,7.2916,7.2914,7.2921,7.2954,7.2985,7.2983,7.2996,7.3026,7.3018,7.2892,7.2874,7.2857,7.284,7.303,7.303,7.3149,7.315,7.3151]}]]